User: anonymous   Login
Location: Beacon Field Observatory
(38.7700°N, 77.0829°W)
Time: 04:50:21
(UTC-05:00)
Language:

UKube-1 - Orbit

View from above orbital plane
View from above orbital plane
View from above satellite
View from above satellite

Ground track
Ground track

The orbit data is extracted from the following two-line orbital elements,

1 40074U 14037F   19343.17353803  .00000255  00000-0  37726-4 0  9991
2 40074  98.4496 155.1740 0005384  30.1042 330.0450 14.84150780293388
Epoch (UTC): 09 December 2019 04:09:53
Eccentricity: 0.0005384
inclination: 98.4496°
perigee height: 612 km
apogee height: 620 km
right ascension of ascending node: 155.1740°
argument of perigee: 30.1042°
revolutions per day: 14.84150780
mean anomaly at epoch: 330.0450°
orbit number at epoch: 29338

The dashed part of the orbit path shows where the satellite is in the earth's shadow,  

DLR